Torna al catalogo

STARLINK-5949

AttivoComunicazioniVLEO
NORAD 56019·PAYLOAD·🇺🇸 United States

Lanciato Mar 24, 2023 da Cape Canaveral Space Force Station

Loading…

Prossimi Passaggi (prossime 24 ore)

TLE

AggiornatoSource: CelesTrak SupGP

Epoca: Sep 15, 2026, 03:09 UTC

1 56019C 23042AK  26258.13173611 -.00015306  00000+0 -55363-3 0  2587
2 56019  43.0040  55.3881 0001947 267.1319 245.0164 15.27629696    10

Traccia STARLINK-5949 in tempo reale con AllMySat

Download on the App Store